[[{"header":{"parameterUnit":"m.s-1","parameterCategory":1,"la1":30.2991,"la2":30.254,"lo1":-89.0895,"lo2":-89.0444,"dy":0.0017,"dx":0.0017,"nx":28,"ny":28,"refTime":"2024-05-08T21:00:00:Z","depth":0,"parameterNumber":2,"parameterNumberName":"U-component_of_WINDS"},"data":[0,0,0,0,0,0,0,0,0,0,0,0,0,0,0,0,0,0,0,0,0,0,0,0,0,0,0,0,0,0,0,0,0,0,0,0,0,0,0,0,0,0,0,0,0,0,0,0,0,0,0,0,0,0,0,0,0,0,-1.0094,-1.0093,0,-1.0052,-1.0051,-1.0051,-1.0,-0.9999,-0.9998,-0.9997,-0.9954,-0.9954,-0.9953,0,0,0,0,0,0,0,0,0,0,0,0,0,-1.013,-1.013,-1.0094,-1.0093,-1.0093,-1.0052,-1.0051,-1.0051,-1.0,-0.9999,-0.9998,-0.9997,-0.9954,-0.9954,-0.9953,0,0,0,0,0,0,0,0,0,0,0,0,0,-1.0104,-1.0129,-1.0094,-1.0063,-1.0059,-1.0052,-1.0051,-1.0051,-1.0,-0.9999,-0.9998,-0.9997,-0.9955,-0.9954,-0.9953,-0.9974,0,0,-0.9952,-0.9951,0,0,0,0,0,0,0,0,-1.0105,-1.0103,-1.0068,-1.0065,-1.0061,-1.003,-1.0048,-1.0025,-1.0,-1.0023,-0.9997,-0.9996,-0.998,-0.9978,-0.9972,-0.9972,-0.997,-0.9951,-0.9951,-0.9951,-0.9951,0,0,0,0,0,0,0,-1.0107,-1.0104,-1.0077,-1.0067,-1.0063,-1.005,-1.0045,-1.0044,-1.0009,-1.0021,-1.0017,-1.0012,-0.9978,-0.9973,-0.9971,-0.9969,-0.9951,-0.9951,-0.9951,-0.995,-0.9982,-0.9983,0,0,0,0,0,0,-1.0114,-1.0106,-1.0079,-1.0076,-1.0081,-1.0051,-1.0045,-1.0041,-1.0009,-1.0002,-1.0014,-1.001,-0.9975,-0.9972,-0.9969,-0.9989,-0.9951,-0.995,-0.995,-0.9981,-0.9982,-0.9983,0,0,0,0,0,0,-1.0115,-1.0112,-1.008,-1.009,-1.0085,-1.0051,-1.0047,-1.0041,-1.0035,-1.0003,-0.9997,-1.0015,-0.9974,-0.997,-0.9973,-0.9987,-0.995,-0.9949,-0.9979,-0.9981,-0.9983,-1.0031,0,0,0,0,0,0,-1.0116,-1.0112,-1.012,-1.009,-1.0085,-1.0085,-1.0048,-1.0041,-1.0035,-1.003,-1.0002,-0.9997,-0.9972,-0.9974,-0.9972,-0.9986,-0.9949,-0.9978,-0.998,-0.9982,-1.0028,-1.0034,-1.004,0,0,0,0,0,-1.0117,-1.0135,-1.012,-1.0117,-1.0093,-1.0086,-1.0082,-1.0054,-1.0036,-1.0043,-1.0022,-0.9998,-0.9987,-0.9975,-0.9972,-0.9986,-0.9977,-0.9979,-0.9982,-1.0025,-1.0033,-1.004,0,0,0,0,0,0,-1.0167,-1.0131,-1.0114,-1.0123,-1.0108,-1.0077,-1.0085,-1.0063,-1.0053,-1.0049,-1.0014,-1.0008,-1.0015,-1.0001,-0.9988,-1.0003,-0.9978,-0.998,-1.0012,-1.0019,-1.0025,-1.0027,-0.9948,0,0,0,0,0,-1.0179,-1.0176,-1.0145,-1.0156,-1.0149,-1.0118,-1.0114,-1.0094,-1.0076,-1.007,-1.0049,-1.0033,-1.0026,-1.0022,-1.0014,-1.0027,-1.0019,-1.0035,-1.0041,-1.0046,-1.0048,-1.0052,-1.0058,-0.9992,-0.9992,-0.9992,0,0,-1.0204,-1.0184,-1.0184,-1.0165,-1.0151,-1.0148,-1.0113,-1.0112,-1.0109,-1.0069,-1.007,-1.0055,-1.0035,-1.0042,-1.0045,-1.0031,-1.0065,-1.0049,-1.0053,-1.0052,-1.0055,-1.0062,-1.0067,-0.9994,-0.9994,-0.9994,0,0,-1.0247,-1.0232,-1.0239,-1.0225,-1.0204,-1.0184,-1.0186,-1.0159,-1.0147,-1.0147,-1.0117,-1.0113,-1.0102,-1.0089,-1.0081,-1.0119,-1.0096,-1.0118,-1.0148,-1.0153,-1.0158,-1.0162,-1.0174,-1.0179,-1.012,-1.012,-1.012,0,-1.028,-1.0275,-1.0245,-1.0245,-1.0238,-1.0202,-1.0208,-1.0197,-1.0174,-1.017,-1.0155,-1.0139,-1.0124,-1.0127,-1.0136,-1.0132,-1.0132,-1.012,-1.0159,-1.0163,-1.0167,-1.0178,-1.0183,-1.0123,-1.0123,-1.0122,-1.0122,0,-1.0316,-1.0313,-1.0321,-1.0299,-1.0293,-1.0297,-1.0267,-1.0264,-1.0245,-1.0226,-1.0227,-1.0207,-1.0193,-1.0193,-1.0174,-1.0193,-1.0185,-1.0166,-1.0139,-1.0177,-1.0186,-1.0191,-1.0127,-1.0126,-1.0125,-1.0124,0,0,-1.0388,-1.035,-1.0354,-1.0343,-1.0318,-1.0314,-1.0317,-1.0303,-1.0301,-1.0287,-1.0287,-1.0278,-1.026,-1.0251,-1.023,-1.0235,-1.0265,-1.0214,-1.0213,-1.0223,-1.0283,-1.0297,-1.0302,-1.025,-1.0251,-1.0251,-1.0284,0,-1.0425,-1.0425,-1.0399,-1.0406,-1.0402,-1.0369,-1.037,-1.0355,-1.0338,-1.0332,-1.0313,-1.0307,-1.0284,-1.0278,-1.0281,-1.0261,-1.0276,-1.0258,-1.0248,-1.0249,-1.0252,-1.0308,-1.0322,-1.0354,-1.0288,-1.0289,-1.0289,0,-1.0467,-1.0455,-1.0463,-1.0436,-1.0434,-1.0435,-1.0421,-1.0416,-1.0398,-1.0385,-1.0375,-1.0352,-1.0351,-1.0328,-1.0326,-1.0315,-1.031,-1.0299,-1.03,-1.0296,-1.027,-1.0304,-1.0364,-1.0368,-1.0296,-1.0295,-1.0295,0,-1.0517,-1.0503,-1.0505,-1.0497,-1.0467,-1.0469,-1.0456,-1.0437,-1.0431,-1.0418,-1.0414,-1.0402,-1.0395,-1.0386,-1.036,-1.0345,-1.0361,-1.0336,-1.0349,-1.035,-1.0352,-1.0352,-1.041,-1.0353,-1.0353,-1.0353,-1.0352,0,-1.0559,-1.0565,-1.0526,-1.0528,-1.0533,-1.0503,-1.0508,-1.0493,-1.0476,-1.0473,-1.0444,-1.0442,-1.0409,-1.0403,-1.0383,-1.0384,-1.0382,-1.037,-1.0365,-1.0372,-1.0373,-1.0366,-1.0363,-1.0354,-1.0353,-1.0353,-1.0353,0,-1.0614,-1.0589,-1.0589,-1.0561,-1.0554,-1.0558,-1.0534,-1.0534,-1.0515,-1.0512,-1.051,-1.048,-1.0472,-1.0446,-1.0431,-1.0418,-1.0424,-1.0415,-1.043,-1.0426,-1.0441,-1.0439,-1.0495,-1.05,-1.0441,-1.0442,-1.0442,0,-1.0642,-1.0646,-1.0617,-1.0613,-1.0602,-1.0596,-1.059,-1.0561,-1.0555,-1.0534,-1.0536,-1.0526,-1.0516,-1.0504,-1.0481,-1.047,-1.0459,-1.0479,-1.0456,-1.0463,-1.0457,-1.0456,-1.0455,-1.0483,-1.0484,-1.0485,-1.0485,0,-1.0694,-1.0682,-1.0673,-1.066,-1.0653,-1.0641,-1.0628,-1.0626,-1.0594,-1.0589,-1.058,-1.0572,-1.0557,-1.0547,-1.0531,-1.0518,-1.0496,-1.0493,-1.0495,-1.0501,-1.051,-1.0504,-1.0441,-1.0491,-1.0491,-1.049,-1.049,-1.049,-1.0735,-1.0736,-1.0716,-1.0707,-1.0694,-1.0683,-1.0681,-1.0662,-1.0654,-1.0639,-1.0623,-1.0616,-1.0597,-1.0574,-1.0563,-1.0557,-1.0545,-1.0549,-1.0549,-1.055,-1.0553,-1.0512,-1.0554,-1.0554,-1.0554,-1.0554,-1.0554,0,-1.0784,-1.077,-1.0762,-1.0744,-1.0737,-1.0717,-1.0702,-1.0697,-1.0691,-1.0676,-1.0666,-1.0656,-1.0646,-1.0623,-1.061,-1.0609,-1.0599,-1.0607,-1.0606,-1.0603,-1.0565,-1.0564,-1.0616,-1.0616,-1.0616,-1.0616,-1.0616,-1.0616,-1.0808,-1.0808,-1.0793,-1.0787,-1.0772,-1.0765,-1.0757,-1.0746,-1.0733,-1.0723,-1.0714,-1.0699,-1.0681,-1.0667,-1.0656,-1.065,-1.0646,-1.0657,-1.0647,-1.0612,-1.0606,-1.06,-1.0598,-1.0657,-1.0657,-1.0684,-1.0685,-1.0685]},{"header":{"parameterUnit":"m.s-1","parameterCategory":1,"la1":30.2991,"la2":30.254,"lo1":-89.0895,"lo2":-89.0444,"dy":0.0017,"dx":0.0017,"nx":28,"ny":28,"refTime":"2024-05-08T21:00:00:Z","depth":0,"parameterNumber":3,"parameterNumberName":"V-component_of_WINDS"},"data":[0,0,0,0,0,0,0,0,0,0,0,0,0,0,0,0,0,0,0,0,0,0,0,0,0,0,0,0,0,0,0,0,0,0,0,0,0,0,0,0,0,0,0,0,0,0,0,0,0,0,0,0,0,0,0,0,0,0,5.2868,5.2869,0,5.2893,5.2893,5.2894,5.2907,5.2907,5.2907,5.2907,5.2929,5.293,5.293,0,0,0,0,0,0,0,0,0,0,0,0,0,5.283,5.2831,5.2868,5.2869,5.2869,5.2893,5.2893,5.2894,5.2907,5.2907,5.2907,5.2907,5.2929,5.293,5.293,0,0,0,0,0,0,0,0,0,0,0,0,0,5.285,5.2831,5.2868,5.2879,5.288,5.2893,5.2894,5.2894,5.2907,5.2907,5.2907,5.2907,5.2929,5.2929,5.293,5.2935,0,0,5.2933,5.2933,0,0,0,0,0,0,0,0,5.2849,5.2851,5.2877,5.2878,5.2879,5.2897,5.2888,5.2907,5.2907,5.2896,5.2907,5.2907,5.2918,5.292,5.2924,5.2936,5.2937,5.2933,5.2933,5.2934,5.2934,0,0,0,0,0,0,0,5.2848,5.285,5.2878,5.2877,5.2879,5.2881,5.2884,5.2892,5.2907,5.2897,5.2898,5.2901,5.2919,5.2923,5.2925,5.2937,5.2933,5.2934,5.2934,5.2935,5.2954,5.2954,0,0,0,0,0,0,5.2845,5.2849,5.2877,5.2879,5.2864,5.2882,5.2885,5.2891,5.2907,5.2909,5.2901,5.2902,5.2922,5.2924,5.2926,5.2933,5.2934,5.2935,5.2935,5.2954,5.2954,5.2954,0,0,0,0,0,0,5.2844,5.2847,5.2876,5.2864,5.2868,5.2882,5.2889,5.2892,5.2896,5.291,5.2912,5.2903,5.2922,5.2925,5.2933,5.2934,5.2935,5.2936,5.2954,5.2954,5.2954,5.2946,0,0,0,0,0,0,5.2843,5.2847,5.2849,5.2864,5.2869,5.2883,5.2889,5.2892,5.2898,5.2899,5.2912,5.2914,5.2922,5.2932,5.2934,5.2935,5.2936,5.2954,5.2954,5.2954,5.2946,5.2946,5.2945,0,0,0,0,0,5.2842,5.2844,5.2849,5.2852,5.2872,5.2883,5.2886,5.2896,5.2898,5.29,5.2909,5.2914,5.2933,5.2932,5.2935,5.2936,5.2954,5.2954,5.2954,5.2946,5.2946,5.2945,0,0,0,0,0,0,5.2827,5.2847,5.2852,5.286,5.287,5.2886,5.2888,5.2895,5.2903,5.2904,5.2915,5.2918,5.2925,5.2931,5.293,5.2942,5.2944,5.2945,5.2937,5.2937,5.2937,5.2935,5.2937,0,0,0,0,0,5.2825,5.2834,5.285,5.2856,5.2861,5.2874,5.2879,5.2886,5.2897,5.2901,5.291,5.2919,5.2928,5.2933,5.2941,5.2947,5.2951,5.295,5.2949,5.2949,5.2949,5.2954,5.2954,5.2955,5.2955,5.2955,0,0,5.282,5.2832,5.2837,5.2853,5.2862,5.287,5.2877,5.2885,5.2891,5.2901,5.2911,5.2918,5.2929,5.2937,5.294,5.2942,5.295,5.2949,5.2948,5.2949,5.2954,5.2954,5.2954,5.2955,5.2955,5.2955,0,0,5.2816,5.2826,5.2833,5.2842,5.2856,5.2865,5.2867,5.2882,5.2887,5.2897,5.2905,5.2912,5.2926,5.2934,5.294,5.2942,5.2947,5.2944,5.2941,5.2946,5.2946,5.2946,5.2947,5.2947,5.2944,5.2944,5.2944,0,5.2808,5.2822,5.2835,5.2843,5.2851,5.2862,5.2869,5.2877,5.2892,5.2896,5.2898,5.2917,5.2925,5.2936,5.2937,5.2941,5.2943,5.2942,5.2945,5.2945,5.2946,5.2947,5.2947,5.2944,5.2944,5.2944,5.2944,0,5.2813,5.2822,5.2826,5.2842,5.285,5.2857,5.2871,5.2877,5.2884,5.2892,5.2902,5.2913,5.2924,5.2927,5.2933,5.2939,5.294,5.2943,5.2946,5.2945,5.2946,5.2947,5.2943,5.2943,5.2943,5.2943,0,0,5.2798,5.2824,5.2825,5.2833,5.2851,5.2858,5.2866,5.2879,5.2884,5.2895,5.2902,5.2914,5.2918,5.2925,5.2932,5.2936,5.2938,5.294,5.294,5.2939,5.2946,5.2944,5.2944,5.2942,5.2942,5.2942,5.2945,0,5.2797,5.2814,5.2827,5.2838,5.2848,5.286,5.2867,5.2878,5.2887,5.2896,5.2905,5.2914,5.2918,5.2923,5.2927,5.2937,5.294,5.2937,5.2948,5.2949,5.2946,5.2944,5.2941,5.2944,5.2946,5.2946,5.2946,0,5.2798,5.281,5.2823,5.2842,5.2846,5.2852,5.2866,5.2874,5.2887,5.2894,5.2902,5.291,5.2919,5.2922,5.2934,5.2932,5.2938,5.2943,5.2944,5.2945,5.2947,5.2946,5.2945,5.2945,5.2947,5.2947,5.2947,0,5.2787,5.2807,5.2818,5.2825,5.2846,5.285,5.2859,5.2873,5.288,5.2891,5.2896,5.2908,5.2914,5.2923,5.2934,5.2935,5.2946,5.2949,5.2951,5.2951,5.2953,5.2952,5.2952,5.2956,5.2956,5.2956,5.2956,0,5.2784,5.2792,5.2814,5.2821,5.283,5.2844,5.2853,5.2862,5.2875,5.2883,5.2894,5.2901,5.2915,5.2924,5.2933,5.2942,5.2945,5.295,5.2952,5.2949,5.2949,5.2953,5.2953,5.2956,5.2956,5.2956,5.2956,0,5.2774,5.2789,5.2802,5.2822,5.2827,5.2833,5.285,5.2856,5.2867,5.2877,5.2881,5.2896,5.2908,5.292,5.2935,5.2941,5.295,5.2953,5.2946,5.2947,5.2949,5.2949,5.2952,5.2954,5.2956,5.2956,5.2956,0,5.2771,5.2778,5.28,5.2807,5.2816,5.2827,5.2836,5.2851,5.2859,5.2875,5.288,5.2893,5.2904,5.2922,5.2934,5.2946,5.2949,5.2949,5.2951,5.2948,5.295,5.2949,5.295,5.2949,5.2949,5.2948,5.2948,0,5.2765,5.2773,5.2785,5.2801,5.2811,5.2824,5.2836,5.2841,5.2858,5.2867,5.288,5.2889,5.2906,5.2918,5.2932,5.294,5.2947,5.2948,5.2949,5.2946,5.2943,5.2945,5.2945,5.2948,5.2948,5.2948,5.2948,5.2948,5.2759,5.2766,5.2783,5.2797,5.2809,5.2821,5.2829,5.2842,5.2853,5.2869,5.2877,5.289,5.2904,5.2923,5.2932,5.2942,5.2944,5.2945,5.2946,5.2946,5.2946,5.2941,5.2944,5.2944,5.2944,5.2944,5.2944,0,5.2754,5.2766,5.2779,5.2798,5.2809,5.2817,5.2832,5.284,5.2852,5.2866,5.2877,5.2893,5.2905,5.2919,5.2933,5.2938,5.2942,5.2941,5.2941,5.2943,5.2943,5.2941,5.2938,5.2938,5.2938,5.2938,5.2938,5.2938,5.2753,5.2766,5.2776,5.2795,5.2807,5.2822,5.283,5.2841,5.2852,5.287,5.2881,5.2891,5.2904,5.2919,5.2931,5.2935,5.294,5.2938,5.2943,5.2942,5.2943,5.2943,5.2941,5.2939,5.2939,5.2942,5.2942,5.2942]}]]